Flag for Sweden Weather past 2 weeks in Borås, Sweden

Now
34 °F

Fog.


Feels Like: 30 °F
Forecast: 30 / 39 °F
Wind: 5 mph from South

Location: Gothenburg / Landvetter

Current Time: Feb 27, 2015 at 5:24:09 PM

Latest Report: Feb 27, 2015 at 4:50 PM


Visibility: 2 mi

Pressure: 29.89 "Hg

Humidity: 93%

Dew point: 32 °F

Location of BoråsLocation

Historic Weather in Borås — Graph

°F

Borås temperature yesterday

Maximum temperature yesterday: 41 °F (at 2:20 PM)
Minimum temperature yesterday: 34 °F (at 12:50 AM)
Average temperature yesterday: 37 °F

Past Weeks' High & Low Weather Summary

 TemperatureHumidityPressure
High41 °F (Feb 26, 2:20 PM)100% (Feb 12, 4:20 PM)30.39 "Hg (Feb 12, 4:20 PM)
Low27 °F (Feb 14, 7:20 PM)65% (Feb 22, 3:50 PM)29.12 "Hg (Feb 23, 12:20 PM)
Average34 °F91%29.86 "Hg
* Reported Feb 12 4:20 PM — Feb 27 4:20 PM, Borås, Weather by CustomWeather, © 2015

Note: Actual official high and low records may vary slightly from our data, if they occured in-between our weather recording intervals... More about our weather records

Advertising

Borås weather history for previous 24 hours

 ConditionsComfort  
Time TempWeatherWind HumidityBarometerVisibility
4:20 PM
Fri, Feb 27
34 °FDrizzle. Broken clouds.6 mph93%29.89 "Hg2 mi
3:50 PM32 °FLight rain. Dense fog.3 mph100%29.89 "Hg1 mi
3:20 PM34 °FLight rain. Low clouds.6 mph93%29.89 "Hg1 mi
2:50 PM36 °FDrizzle. Mostly cloudy.6 mph93%29.86 "Hg2 mi
2:20 PM36 °FLight rain. Partly sunny.6 mph93%29.86 "Hg2 mi
1:50 PM36 °FLight rain. Mostly cloudy.8 mph93%29.86 "Hg3 mi
1:20 PM36 °FDrizzle. Partly sunny.8 mph93%29.86 "Hg4 mi
12:50 PM36 °FDrizzle. Mostly cloudy.9 mph93%29.86 "Hg4 mi
12:20 PM36 °FDrizzle. Mostly cloudy.12 mph93%29.86 "Hg4 mi
11:50 AM36 °FLight rain. Mostly cloudy.13 mph87%29.86 "Hg5 mi
11:20 AM37 °FDrizzle. Overcast.10 mph81%29.86 "HgN/A
10:50 AM37 °FOvercast.12 mph81%29.83 "HgN/A
10:20 AM37 °FPartly sunny.12 mph75%29.83 "HgN/A
9:50 AM37 °FOvercast.13 mph75%29.83 "HgN/A
9:20 AM37 °FCloudy.10 mph75%29.83 "HgN/A
8:50 AM36 °FPartly sunny.10 mph81%29.83 "HgN/A
8:20 AM36 °FSunny.12 mph81%29.80 "Hg10 mi
7:50 AM36 °FSunny.10 mph75%29.80 "Hg10 mi
7:20 AM36 °FBroken clouds.10 mph75%29.80 "HgN/A
6:50 AM34 °FPassing clouds.10 mph81%29.80 "HgN/A
6:20 AM34 °FOvercast.12 mph81%29.80 "HgN/A
5:20 AM34 °FOvercast.12 mph81%29.80 "HgN/A
4:20 AM36 °FOvercast.10 mph75%29.80 "HgN/A
3:50 AM36 °FOvercast.12 mph75%29.80 "HgN/A
3:20 AM36 °FOvercast.13 mph75%29.80 "HgN/A
2:50 AM36 °FOvercast.13 mph75%29.80 "HgN/A
2:20 AM36 °FPassing clouds.13 mph75%29.80 "HgN/A
1:50 AM36 °FPassing clouds.13 mph75%29.80 "HgN/A
1:20 AM36 °FPassing clouds.15 mph75%29.83 "HgN/A
12:50 AM37 °FOvercast.16 mph70%29.83 "HgN/A
12:20 AM36 °FPassing clouds.17 mph75%29.83 "HgN/A
11:50 PM
Thu, Feb 26
37 °FPassing clouds.16 mph70%29.83 "HgN/A
11:20 PM37 °FOvercast.18 mph70%29.86 "HgN/A
10:50 PM37 °FOvercast.17 mph70%29.86 "HgN/A
10:20 PM37 °FOvercast.17 mph70%29.86 "HgN/A
9:50 PM37 °FPassing clouds.18 mph70%29.86 "HgN/A
9:20 PM39 °FPassing clouds.18 mph65%29.86 "HgN/A
8:50 PM39 °FPassing clouds.16 mph70%29.89 "HgN/A
8:20 PM39 °FPassing clouds.16 mph70%29.89 "HgN/A
7:50 PM39 °FPassing clouds.18 mph70%29.89 "HgN/A
7:20 PM39 °FPassing clouds.17 mph65%29.89 "HgN/A
6:50 PM39 °FClear.15 mph65%29.89 "Hg10 mi
6:20 PM39 °FClear.16 mph65%29.92 "Hg10 mi
5:50 PM39 °FClear.15 mph65%29.92 "Hg10 mi
5:20 PM39 °FSunny.15 mph70%29.92 "Hg10 mi
Weather by CustomWeather, © 2015

See weather overviewHow to use our weather pages